Location: Paderno d�Adda
(45.6667°N, 9.4333°E)
Time: 16:23:09
(UTC+00:00)

Cosmos 1891 Rocket - Pass Details

Date: 19 September 2020
Orbit: 933 x 1019 km, 82.9° (Epoch: 20 October)

Event Time Altitude Azimuth Distance (km) Brightness Sun altitude
Rises 18:49:44 0° 187° (S) 3,644 7.4 -15.4°
Reaches altitude 10° 18:52:14 10° 188° (S) 2,689 6.7 -15.8°
Maximum altitude 18:58:23 86° 277° (W) 957 4.5 -16.8°
Drops below altitude 10° 19:04:29 10° 8° (N) 2,663 6.9 -17.8°
Sets 19:06:58 0° 9° (N) 3,606 7.6 -18.2°
